QPF
0.01 0.01 0.02 0.01 0.00 0.01 0.01 0.01 0.02 0.02 0.02 0.03 0.02 0.03 0.04 0.05 0.07 0.07 0.06 0.06 0.08 0.07 0.06 0.06 0.07 0.07 0.07 0.09 0.08 0.09 0.10 0.11 0.11 0.13 0.15 0.15 0.11 0.10 0.08 0.08 0.07 0.06 0.05
0.01 0.01 0.02 0.01 0.00 0.01 0.01 0.01 0.01 0.02 0.02 0.02 0.02 0.02 0.03 0.04 0.06 0.07 0.09 0.08 0.08 0.06 0.05 0.05 0.07 0.08 0.08 0.09 0.08 0.09 0.10 0.11 0.12 0.14 0.17 0.18 0.19 0.14 0.11 0.11 0.08 0.06 0.06
0.01 0.01 0.02 0.02 0.02 0.02 0.02 0.01 0.01 0.01 0.02 0.03 0.03 0.03 0.04 0.04 0.06 0.07 0.09 0.08 0.08 0.05 0.04 0.04 0.05 0.07 0.08 0.09 0.09 0.09 0.11 0.12 0.14 0.13 0.15 0.18 0.19 0.18 0.17 0.13 0.09 0.08 0.07
0.03 0.03 0.02 0.02 0.02 0.03 0.03 0.03 0.02 0.02 0.03 0.03 0.04 0.04 0.05 0.06 0.07 0.08 0.08 0.09 0.08 0.06 0.05 0.05 0.05 0.07 0.09 0.10 0.08 0.09 0.10 0.13 0.15 0.14 0.13 0.14 0.14 0.16 0.16 0.13 0.09 0.08 0.06
0.04 0.05 0.04 0.02 0.01 0.02 0.02 0.02 0.02 0.02 0.02 0.03 0.04 0.05 0.05 0.06 0.07 0.09 0.09 0.09 0.08 0.07 0.06 0.07 0.07 0.07 0.09 0.10 0.10 0.08 0.07 0.10 0.14 0.14 0.15 0.15 0.12 0.11 0.12 0.13 0.12 0.09 0.05
0.04 0.03 0.03 0.02 0.01 0.02 0.02 0.02 0.02 0.02 0.02 0.02 0.03 0.04 0.05 0.07 0.09 0.09 0.09 0.08 0.08 0.08 0.08 0.09 0.11 0.10 0.10 0.11 0.10 0.08 0.06 0.07 0.10 0.12 0.15 0.19 0.12 0.09 0.10 0.11 0.11 0.09 0.05
0.04 0.02 0.01 0.01 0.01 0.02 0.05 0.03 0.02 0.02 0.03 0.03 0.04 0.03 0.04 0.05 0.07 0.07 0.07 0.07 0.08 0.08 0.10 0.10 0.11 0.10 0.10 0.10 0.10 0.09 0.08 0.07 0.09 0.08 0.09 0.11 0.11 0.11 0.09 0.09 0.08 0.08 0.06
0.02 0.02 0.01 0.02 0.02 0.02 0.02 0.02 0.01 0.02 0.02 0.03 0.04 0.03 0.04 0.05 0.05 0.06 0.05 0.06 0.07 0.08 0.09 0.10 0.10 0.08 0.08 0.09 0.11 0.10 0.09 0.09 0.08 0.08 0.09 0.09 0.07 0.08 0.07 0.07 0.08 0.08 0.07
0.01 0.00 0.00 0.01 0.00 0.01 0.01 0.01 0.01 0.02 0.02 0.02 0.03 0.04 0.04 0.04 0.05 0.06 0.05 0.05 0.07 0.08 0.07 0.06 0.06 0.06 0.07 0.07 0.09 0.10 0.10 0.11 0.09 0.10 0.11 0.08 0.07 0.06 0.04 0.04 0.05 0.06 0.08
0.00 0.00 0.00 0.00 0.00 0.01 0.01 0.02 0.02 0.02 0.02 0.02 0.02 0.02 0.03 0.04 0.05 0.06 0.06 0.06 0.06 0.08 0.08 0.06 0.05 0.05 0.06 0.07 0.08 0.09 0.09 0.09 0.09 0.11 0.12 0.09 0.08 0.07 0.05 0.05 0.04 0.04 0.06
0.00 0.00 0.00 0.00 0.01 0.01 0.02 0.03 0.04 0.03 0.02 0.02 0.02 0.02 0.02 0.03 0.03 0.03 0.04 0.05 0.04 0.05 0.07 0.07 0.08 0.07 0.07 0.08 0.09 0.09 0.10 0.09 0.09 0.10 0.12 0.11 0.08 0.08 0.06 0.06 0.06 0.05 0.05
0.01 0.00 0.00 0.00 0.00 0.01 0.02 0.02 0.03 0.03 0.02 0.02 0.01 0.02 0.02 0.02 0.03 0.03 0.04 0.05 0.04 0.04 0.05 0.07 0.07 0.06 0.07 0.08 0.08 0.07 0.08 0.08 0.09 0.08 0.08 0.09 0.09 0.08 0.08 0.09 0.08 0.07 0.07
0.00 0.00 0.00 0.00 0.00 0.01 0.01 0.01 0.02 0.02 0.02 0.01 0.01 0.02 0.03 0.03 0.04 0.04 0.05 0.05 0.04 0.03 0.03 0.04 0.05 0.04 0.05 0.07 0.07 0.06 0.05 0.06 0.08 0.07 0.06 0.06 0.06 0.07 0.07 0.07 0.07 0.08 0.06
0.00 0.00 0.00 0.00 0.01 0.01 0.01 0.01 0.01 0.01 0.01 0.01 0.01 0.03 0.04 0.04 0.04 0.03 0.03 0.04 0.03 0.02 0.02 0.04 0.04 0.04 0.05 0.04 0.05 0.06 0.05 0.05 0.07 0.06 0.05 0.05 0.04 0.05 0.07 0.05 0.05 0.05 0.06
0.01 0.01 0.01 0.01 0.01 0.01 0.01 0.01 0.00 0.01 0.02 0.02 0.02 0.02 0.02 0.02 0.02 0.02 0.02 0.04 0.03 0.01 0.01 0.02 0.03 0.03 0.03 0.03 0.04 0.05 0.06 0.07 0.09 0.07 0.04 0.04 0.04 0.04 0.04 0.03 0.05 0.05 0.04
0.02 0.02 0.01 0.01 0.01 0.01 0.01 0.01 0.01 0.02 0.03 0.03 0.02 0.01 0.01 0.01 0.01 0.01 0.02 0.02 0.02 0.02 0.01 0.01 0.01 0.02 0.01 0.02 0.03 0.04 0.05 0.07 0.07 0.06 0.06 0.05 0.05 0.03 0.02 0.01 0.02 0.03 0.03
0.01 0.01 0.01 0.01 0.01 0.01 0.02 0.02 0.03 0.02 0.02 0.02 0.01 0.01 0.01 0.01 0.01 0.01 0.02 0.02 0.02 0.02 0.02 0.01 0.02 0.02 0.02 0.01 0.01 0.01 0.03 0.06 0.07 0.07 0.08 0.06 0.05 0.04 0.02 0.01 0.01 0.01 0.01
0.01 0.01 0.00 0.01 0.01 0.01 0.01 0.01 0.02 0.03 0.02 0.02 0.02 0.02 0.02 0.02 0.02 0.02 0.02 0.02 0.02 0.02 0.02 0.02 0.02 0.03 0.02 0.01 0.01 0.01 0.02 0.04 0.04 0.05 0.06 0.07 0.06 0.07 0.05 0.04 0.03 0.01 0.01
0.01 0.01 0.01 0.01 0.01 0.01 0.01 0.01 0.02 0.02 0.02 0.02 0.03 0.02 0.02 0.02 0.01 0.01 0.01 0.02 0.02 0.03 0.03 0.03 0.03 0.03 0.03 0.01 0.01 0.01 0.01 0.02 0.03 0.05 0.06 0.06 0.05 0.07 0.06 0.06 0.06 0.04 0.03
0.01 0.01 0.01 0.02 0.01 0.01 0.02 0.02 0.03 0.03 0.03 0.03 0.03 0.02 0.02 0.02 0.02 0.03 0.02 0.03 0.03 0.03 0.02 0.02 0.02 0.03 0.03 0.02 0.01 0.01 0.02 0.03 0.04 0.05 0.05 0.06 0.05 0.06 0.05 0.04 0.05 0.04 0.04
0.00 0.01 0.01 0.02 0.03 0.03 0.03 0.03 0.04 0.04 0.03 0.03 0.02 0.02 0.02 0.03 0.04 0.05 0.03 0.05 0.05 0.04 0.03 0.03 0.03 0.02 0.01 0.01 0.01 0.01 0.02 0.04 0.04 0.04 0.05 0.05 0.04 0.04 0.04 0.04 0.04 0.03 0.04
0.00 0.00 0.01 0.02 0.03 0.03 0.04 0.04 0.04 0.03 0.03 0.04 0.04 0.04 0.03 0.03 0.03 0.04 0.05 0.05 0.06 0.04 0.03 0.03 0.02 0.02 0.01 0.00 0.00 0.00 0.01 0.03 0.03 0.03 0.03 0.03 0.04 0.03 0.02 0.01 0.01 0.02 0.02
0.00 0.01 0.01 0.02 0.02 0.02 0.02 0.03 0.03 0.03 0.03 0.04 0.06 0.07 0.07 0.06 0.06 0.05 0.05 0.05 0.06 0.06 0.04 0.03 0.02 0.02 0.02 0.01 0.01 0.01 0.01 0.02 0.02 0.02 0.03 0.03 0.02 0.01 0.01 0.01 0.01 0.02 0.02
0.00 0.01 0.01 0.01 0.02 0.02 0.02 0.02 0.02 0.02 0.03 0.03 0.05 0.06 0.07 0.08 0.07 0.07 0.06 0.05 0.06 0.06 0.06 0.05 0.04 0.03 0.03 0.03 0.03 0.02 0.03 0.02 0.02 0.01 0.01 0.01 0.02 0.03 0.02 0.01 0.02 0.02 0.02
0.01 0.02 0.02 0.02 0.02 0.01 0.02 0.02 0.02 0.02 0.03 0.04 0.04 0.05 0.04 0.05 0.06 0.06 0.05 0.05 0.05 0.05 0.06 0.06 0.06 0.04 0.04 0.05 0.05 0.03 0.03 0.03 0.02 0.02 0.02 0.02 0.03 0.03 0.03 0.04 0.04 0.03 0.02
0.01 0.02 0.02 0.02 0.02 0.02 0.02 0.02 0.02 0.02 0.03 0.04 0.04 0.04 0.04 0.03 0.03 0.04 0.03 0.04 0.05 0.04 0.04 0.05 0.06 0.05 0.05 0.04 0.04 0.04 0.03 0.02 0.02 0.02 0.03 0.03 0.04 0.04 0.03 0.03 0.04 0.04 0.03
MSLP
1006.57 1006.96 1007.33 1007.60 1007.75 1007.76 1007.67 1007.51 1007.35 1007.22 1007.16 1007.17 1007.23 1007.30 1007.35 1007.35 1007.28 1007.16 1007.01 1006.87 1006.80 1006.82 1006.96 1007.21 1007.58 1008.03 1008.55 1009.12 1009.74 1010.40 1011.11 1011.86 1012.65 1013.44 1014.22 1014.93 1015.57 1016.09 1016.51 1016.83 1017.10 1017.36 1017.64
1007.58 1007.84 1008.06 1008.19 1008.21 1008.13 1007.97 1007.78 1007.61 1007.51 1007.47 1007.50 1007.57 1007.64 1007.67 1007.64 1007.54 1007.39 1007.23 1007.10 1007.04 1007.09 1007.25 1007.53 1007.89 1008.33 1008.81 1009.33 1009.89 1010.48 1011.14 1011.85 1012.63 1013.43 1014.24 1015.01 1015.71 1016.29 1016.76 1017.12 1017.41 1017.66 1017.91
1008.38 1008.51 1008.60 1008.61 1008.53 1008.38 1008.18 1007.99 1007.85 1007.77 1007.78 1007.84 1007.93 1008.00 1008.03 1007.98 1007.86 1007.70 1007.53 1007.41 1007.36 1007.42 1007.58 1007.84 1008.18 1008.57 1008.99 1009.43 1009.90 1010.43 1011.03 1011.71 1012.47 1013.29 1014.15 1014.98 1015.75 1016.41 1016.95 1017.36 1017.68 1017.94 1018.18
1008.95 1008.98 1008.97 1008.90 1008.77 1008.58 1008.38 1008.20 1008.09 1008.05 1008.10 1008.19 1008.30 1008.39 1008.42 1008.37 1008.25 1008.09 1007.92 1007.80 1007.75 1007.80 1007.93 1008.16 1008.43 1008.74 1009.08 1009.43 1009.81 1010.26 1010.80 1011.45 1012.20 1013.05 1013.95 1014.84 1015.69 1016.43 1017.04 1017.52 1017.89 1018.17 1018.41
1009.34 1009.32 1009.26 1009.14 1008.98 1008.79 1008.60 1008.45 1008.37 1008.36 1008.43 1008.55 1008.68 1008.77 1008.81 1008.77 1008.66 1008.51 1008.36 1008.24 1008.18 1008.20 1008.30 1008.46 1008.65 1008.87 1009.10 1009.35 1009.65 1010.02 1010.51 1011.12 1011.87 1012.73 1013.66 1014.61 1015.52 1016.33 1017.01 1017.55 1017.96 1018.28 1018.54
1009.63 1009.58 1009.51 1009.39 1009.24 1009.06 1008.89 1008.76 1008.69 1008.70 1008.77 1008.89 1009.02 1009.12 1009.16 1009.14 1009.05 1008.93 1008.79 1008.68 1008.62 1008.61 1008.65 1008.73 1008.84 1008.96 1009.09 1009.25 1009.46 1009.77 1010.21 1010.80 1011.53 1012.39 1013.34 1014.31 1015.25 1016.10 1016.83 1017.42 1017.88 1018.24 1018.53
1009.88 1009.84 1009.77 1009.68 1009.54 1009.39 1009.23 1009.11 1009.04 1009.04 1009.09 1009.19 1009.30 1009.39 1009.44 1009.43 1009.38 1009.29 1009.19 1009.10 1009.03 1008.99 1008.99 1009.00 1009.02 1009.04 1009.09 1009.16 1009.32 1009.57 1009.97 1010.53 1011.24 1012.09 1013.02 1013.99 1014.92 1015.78 1016.53 1017.14 1017.64 1018.04 1018.37
1010.13 1010.11 1010.07 1010.01 1009.91 1009.77 1009.63 1009.50 1009.41 1009.37 1009.38 1009.43 1009.50 1009.57 1009.63 1009.64 1009.63 1009.58 1009.52 1009.46 1009.40 1009.35 1009.30 1009.25 1009.21 1009.16 1009.14 1009.16 1009.27 1009.49 1009.86 1010.39 1011.08 1011.89 1012.77 1013.69 1014.59 1015.41 1016.13 1016.75 1017.26 1017.69 1018.07
1010.39 1010.40 1010.40 1010.37 1010.30 1010.19 1010.05 1009.91 1009.78 1009.68 1009.63 1009.62 1009.64 1009.68 1009.73 1009.77 1009.79 1009.80 1009.78 1009.76 1009.72 1009.67 1009.60 1009.52 1009.43 1009.35 1009.29 1009.28 1009.37 1009.58 1009.93 1010.44 1011.08 1011.83 1012.65 1013.49 1014.30 1015.05 1015.72 1016.30 1016.80 1017.25 1017.67
1010.66 1010.69 1010.73 1010.74 1010.70 1010.61 1010.47 1010.30 1010.13 1009.97 1009.85 1009.77 1009.74 1009.75 1009.78 1009.84 1009.90 1009.95 1009.99 1010.01 1010.01 1009.98 1009.92 1009.83 1009.72 1009.62 1009.55 1009.55 1009.64 1009.84 1010.19 1010.67 1011.27 1011.96 1012.69 1013.42 1014.13 1014.78 1015.36 1015.88 1016.35 1016.79 1017.23
1010.90 1010.97 1011.04 1011.08 1011.06 1010.99 1010.85 1010.67 1010.45 1010.24 1010.06 1009.92 1009.83 1009.80 1009.82 1009.88 1009.97 1010.07 1010.16 1010.24 1010.28 1010.28 1010.24 1010.16 1010.07 1009.98 1009.93 1009.95 1010.06 1010.29 1010.64 1011.10 1011.65 1012.26 1012.90 1013.52 1014.10 1014.63 1015.10 1015.53 1015.95 1016.36 1016.80
1011.09 1011.18 1011.28 1011.35 1011.36 1011.31 1011.18 1010.99 1010.75 1010.50 1010.26 1010.07 1009.93 1009.86 1009.87 1009.93 1010.04 1010.18 1010.32 1010.44 1010.53 1010.57 1010.56 1010.52 1010.46 1010.41 1010.40 1010.45 1010.60 1010.85 1011.20 1011.65 1012.16 1012.70 1013.24 1013.75 1014.21 1014.61 1014.96 1015.30 1015.64 1016.01 1016.44
1011.23 1011.34 1011.45 1011.55 1011.59 1011.56 1011.45 1011.27 1011.02 1010.75 1010.47 1010.24 1010.06 1009.96 1009.94 1010.00 1010.12 1010.28 1010.45 1010.61 1010.74 1010.82 1010.86 1010.86 1010.85 1010.85 1010.88 1010.98 1011.17 1011.45 1011.81 1012.25 1012.72 1013.20 1013.66 1014.06 1014.40 1014.69 1014.94 1015.17 1015.44 1015.75 1016.13
1011.30 1011.42 1011.56 1011.67 1011.74 1011.74 1011.65 1011.48 1011.24 1010.96 1010.67 1010.41 1010.20 1010.07 1010.02 1010.07 1010.18 1010.35 1010.54 1010.73 1010.89 1011.02 1011.10 1011.16 1011.19 1011.24 1011.33 1011.48 1011.70 1012.01 1012.38 1012.81 1013.25 1013.68 1014.07 1014.39 1014.64 1014.83 1014.98 1015.13 1015.31 1015.55 1015.88
1011.34 1011.47 1011.61 1011.73 1011.82 1011.83 1011.77 1011.63 1011.41 1011.13 1010.84 1010.57 1010.33 1010.17 1010.10 1010.12 1010.22 1010.38 1010.57 1010.77 1010.96 1011.12 1011.25 1011.35 1011.44 1011.54 1011.68 1011.87 1012.13 1012.46 1012.84 1013.26 1013.68 1014.07 1014.41 1014.67 1014.85 1014.96 1015.04 1015.12 1015.22 1015.40 1015.66
1011.36 1011.49 1011.62 1011.75 1011.83 1011.86 1011.82 1011.70 1011.49 1011.24 1010.96 1010.67 1010.43 1010.24 1010.14 1010.13 1010.20 1010.34 1010.52 1010.72 1010.93 1011.12 1011.28 1011.42 1011.56 1011.71 1011.90 1012.13 1012.42 1012.77 1013.17 1013.58 1013.98 1014.34 1014.64 1014.86 1015.00 1015.07 1015.09 1015.11 1015.16 1015.28 1015.47
1011.41 1011.52 1011.64 1011.74 1011.81 1011.84 1011.80 1011.70 1011.51 1011.28 1011.00 1010.72 1010.47 1010.27 1010.13 1010.08 1010.12 1010.22 1010.38 1010.58 1010.78 1010.99 1011.18 1011.37 1011.55 1011.75 1011.98 1012.26 1012.58 1012.94 1013.34 1013.75 1014.14 1014.48 1014.76 1014.96 1015.08 1015.12 1015.12 1015.11 1015.12 1015.18 1015.31
1011.50 1011.59 1011.67 1011.74 1011.79 1011.79 1011.75 1011.64 1011.48 1011.25 1010.99 1010.72 1010.46 1010.24 1010.08 1009.99 1009.98 1010.04 1010.17 1010.34 1010.54 1010.75 1010.97 1011.19 1011.42 1011.67 1011.94 1012.25 1012.61 1012.99 1013.40 1013.81 1014.19 1014.53 1014.80 1014.99 1015.10 1015.14 1015.14 1015.11 1015.09 1015.11 1015.20
1011.67 1011.72 1011.75 1011.77 1011.78 1011.75 1011.69 1011.57 1011.41 1011.20 1010.95 1010.68 1010.42 1010.19 1010.00 1009.87 1009.81 1009.83 1009.91 1010.04 1010.21 1010.42 1010.65 1010.90 1011.17 1011.47 1011.79 1012.15 1012.54 1012.95 1013.37 1013.79 1014.18 1014.52 1014.79 1014.99 1015.11 1015.16 1015.16 1015.13 1015.10 1015.10 1015.15
1011.90 1011.91 1011.90 1011.87 1011.82 1011.75 1011.65 1011.53 1011.36 1011.15 1010.91 1010.65 1010.39 1010.14 1009.92 1009.75 1009.64 1009.60 1009.62 1009.70 1009.84 1010.03 1010.25 1010.52 1010.83 1011.17 1011.54 1011.95 1012.38 1012.83 1013.28 1013.72 1014.12 1014.47 1014.75 1014.96 1015.10 1015.17 1015.19 1015.17 1015.15 1015.14 1015.16
1012.21 1012.19 1012.12 1012.04 1011.93 1011.82 1011.68 1011.53 1011.36 1011.15 1010.92 1010.67 1010.40 1010.13 1009.88 1009.67 1009.50 1009.38 1009.33 1009.35 1009.43 1009.58 1009.80 1010.07 1010.40 1010.78 1011.20 1011.66 1012.14 1012.64 1013.13 1013.59 1014.01 1014.38 1014.68 1014.91 1015.07 1015.16 1015.20 1015.21 1015.20 1015.19 1015.21
1012.59 1012.53 1012.43 1012.29 1012.13 1011.97 1011.80 1011.62 1011.43 1011.22 1010.99 1010.73 1010.46 1010.17 1009.89 1009.62 1009.38 1009.19 1009.06 1009.00 1009.01 1009.10 1009.28 1009.54 1009.88 1010.29 1010.75 1011.26 1011.79 1012.34 1012.87 1013.37 1013.82 1014.21 1014.53 1014.78 1014.96 1015.08 1015.15 1015.18 1015.19 1015.20 1015.21
1013.01 1012.93 1012.79 1012.61 1012.41 1012.21 1012.00 1011.79 1011.57 1011.35 1011.11 1010.84 1010.56 1010.24 1009.92 1009.60 1009.29 1009.02 1008.80 1008.65 1008.58 1008.60 1008.73 1008.96 1009.29 1009.71 1010.20 1010.74 1011.32 1011.90 1012.47 1013.01 1013.49 1013.91 1014.25 1014.52 1014.72 1014.86 1014.95 1015.01 1015.04 1015.07 1015.11
1013.44 1013.35 1013.19 1012.98 1012.75 1012.50 1012.25 1012.01 1011.77 1011.52 1011.26 1010.98 1010.67 1010.33 1009.97 1009.59 1009.22 1008.86 1008.56 1008.31 1008.16 1008.10 1008.16 1008.35 1008.65 1009.05 1009.55 1010.11 1010.71 1011.32 1011.92 1012.48 1012.98 1013.41 1013.77 1014.05 1014.27 1014.43 1014.54 1014.62 1014.69 1014.74 1014.80
1013.86 1013.77 1013.60 1013.37 1013.11 1012.82 1012.54 1012.25 1011.97 1011.69 1011.40 1011.09 1010.76 1010.39 1009.99 1009.57 1009.14 1008.72 1008.34 1008.02 1007.78 1007.65 1007.64 1007.76 1008.01 1008.38 1008.86 1009.40 1010.00 1010.61 1011.21 1011.77 1012.28 1012.71 1013.07 1013.36 1013.58 1013.75 1013.88 1013.99 1014.08 1014.16 1014.25
1014.24 1014.16 1013.99 1013.75 1013.45 1013.14 1012.81 1012.48 1012.15 1011.83 1011.50 1011.16 1010.79 1010.40 1009.97 1009.53 1009.06 1008.61 1008.18 1007.80 1007.50 1007.31 1007.23 1007.29 1007.48 1007.79 1008.21 1008.71 1009.27 1009.84 1010.41 1010.94 1011.42 1011.84 1012.18 1012.46 1012.68 1012.85 1012.99 1013.11 1013.22 1013.34 1013.45
Thickness
5803 5801 5797 5792 5786 5781 5775 5771 5767 5764 5762 5758 5754 5751 5749 5750 5749 5749 5747 5746 5744 5743 5742 5741 5740 5740 5738 5737 5737 5736 5734 5733 5734 5730 5728 5730 5733 5733 5733 5734 5734 5733 5732
5795 5793 5789 5785 5780 5775 5771 5767 5763 5760 5757 5755 5753 5751 5748 5747 5746 5746 5744 5743 5742 5740 5740 5738 5737 5736 5735 5734 5734 5733 5731 5731 5731 5727 5722 5718 5721 5726 5731 5731 5731 5732 5731
5790 5786 5782 5779 5775 5770 5766 5763 5759 5756 5753 5751 5749 5747 5744 5743 5741 5740 5740 5740 5739 5738 5736 5736 5735 5734 5733 5731 5730 5730 5728 5726 5727 5728 5723 5716 5712 5716 5722 5727 5729 5729 5728
5787 5782 5778 5775 5771 5768 5765 5760 5756 5752 5749 5747 5743 5740 5736 5734 5734 5735 5735 5735 5735 5734 5734 5733 5732 5730 5730 5728 5728 5728 5727 5725 5723 5725 5726 5724 5721 5714 5712 5718 5724 5726 5725
5785 5779 5775 5773 5770 5766 5762 5757 5752 5748 5745 5742 5739 5735 5733 5732 5732 5732 5730 5730 5730 5730 5730 5729 5728 5727 5726 5725 5725 5725 5724 5724 5721 5720 5720 5720 5721 5720 5714 5710 5714 5719 5721
5782 5777 5773 5771 5766 5763 5757 5752 5746 5742 5740 5737 5735 5732 5729 5728 5726 5725 5724 5724 5725 5726 5726 5725 5724 5724 5723 5722 5722 5722 5721 5721 5720 5719 5718 5716 5715 5714 5714 5710 5710 5711 5715
5776 5771 5767 5764 5760 5756 5751 5746 5741 5737 5735 5733 5730 5728 5726 5724 5721 5720 5720 5719 5720 5720 5720 5721 5720 5720 5720 5720 5719 5719 5718 5718 5717 5716 5716 5716 5716 5716 5714 5712 5709 5709 5712
5771 5766 5763 5759 5755 5752 5747 5742 5736 5733 5731 5728 5726 5724 5722 5720 5718 5717 5716 5716 5716 5717 5716 5717 5717 5717 5717 5717 5716 5715 5715 5715 5715 5715 5714 5714 5714 5715 5714 5712 5708 5704 5705
5766 5761 5759 5756 5751 5747 5742 5738 5733 5729 5727 5724 5722 5719 5718 5715 5714 5713 5712 5712 5712 5713 5713 5713 5713 5713 5712 5712 5712 5711 5712 5712 5712 5712 5712 5711 5712 5713 5713 5713 5711 5703 5697
5760 5758 5755 5751 5747 5742 5738 5734 5730 5725 5723 5721 5718 5716 5713 5712 5711 5709 5707 5707 5707 5708 5707 5707 5708 5708 5708 5708 5708 5708 5709 5708 5708 5709 5708 5708 5708 5709 5710 5710 5710 5707 5701
5754 5751 5748 5745 5741 5736 5732 5728 5725 5722 5719 5716 5714 5711 5709 5708 5706 5705 5704 5703 5703 5702 5702 5702 5703 5703 5703 5704 5704 5704 5704 5704 5704 5705 5705 5704 5705 5704 5705 5706 5706 5704 5702
5749 5746 5742 5738 5734 5730 5726 5723 5720 5717 5715 5712 5709 5706 5704 5703 5701 5700 5699 5699 5698 5698 5698 5698 5697 5698 5699 5699 5699 5699 5700 5700 5700 5700 5700 5700 5701 5700 5700 5700 5700 5700 5700
5742 5739 5735 5731 5727 5724 5720 5717 5715 5712 5710 5707 5704 5701 5699 5697 5696 5695 5694 5694 5693 5693 5693 5693 5693 5693 5695 5695 5695 5695 5695 5696 5696 5695 5695 5695 5695 5694 5695 5695 5696 5696 5697
5734 5730 5726 5724 5721 5718 5714 5712 5710 5708 5705 5702 5699 5695 5693 5692 5691 5691 5690 5689 5689 5688 5688 5688 5688 5689 5690 5690 5690 5691 5691 5691 5691 5691 5691 5691 5691 5690 5690 5691 5691 5691 5690
5724 5722 5719 5717 5714 5711 5708 5706 5704 5702 5700 5697 5694 5691 5690 5689 5687 5686 5686 5685 5684 5685 5684 5683 5684 5684 5685 5685 5685 5685 5686 5685 5685 5685 5686 5687 5687 5686 5686 5686 5685 5685 5683
5718 5716 5714 5710 5708 5705 5703 5701 5699 5697 5695 5692 5689 5688 5686 5684 5682 5681 5680 5679 5679 5679 5679 5678 5678 5679 5680 5680 5679 5679 5680 5680 5679 5679 5680 5681 5682 5681 5681 5681 5680 5680 5678
5713 5710 5706 5703 5701 5699 5697 5694 5693 5692 5689 5686 5685 5683 5681 5679 5677 5677 5675 5674 5673 5673 5673 5673 5673 5673 5673 5673 5673 5673 5673 5674 5674 5674 5675 5676 5677 5676 5676 5676 5675 5674 5673
5706 5703 5700 5697 5694 5692 5691 5690 5689 5686 5683 5681 5680 5679 5677 5675 5672 5671 5670 5669 5668 5668 5668 5668 5668 5668 5668 5667 5667 5667 5668 5668 5669 5669 5670 5669 5669 5671 5670 5670 5669 5669 5669
5699 5696 5694 5691 5688 5685 5684 5683 5681 5679 5677 5676 5675 5674 5673 5670 5668 5666 5665 5663 5662 5662 5663 5663 5663 5663 5662 5661 5661 5660 5663 5663 5663 5664 5665 5665 5664 5665 5664 5663 5662 5662 5663
5691 5689 5687 5684 5680 5679 5677 5675 5673 5672 5670 5670 5670 5669 5667 5665 5663 5662 5660 5659 5657 5657 5658 5658 5658 5658 5657 5656 5655 5654 5657 5658 5658 5660 5660 5660 5660 5659 5658 5657 5656 5656 5658
5683 5681 5678 5675 5672 5672 5670 5667 5665 5664 5666 5666 5664 5663 5661 5660 5658 5656 5655 5653 5652 5651 5651 5652 5653 5653 5653 5652 5651 5650 5651 5652 5653 5654 5655 5656 5655 5654 5653 5653 5652 5652 5653
5674 5672 5669 5666 5665 5665 5662 5660 5658 5658 5659 5658 5656 5654 5653 5653 5652 5649 5648 5647 5645 5645 5645 5645 5646 5648 5649 5649 5646 5645 5645 5646 5646 5647 5649 5650 5649 5648 5647 5647 5648 5648 5647
5666 5664 5662 5659 5659 5658 5656 5653 5653 5652 5651 5649 5647 5647 5646 5645 5644 5642 5640 5640 5639 5638 5639 5639 5640 5642 5644 5644 5642 5640 5640 5640 5639 5641 5642 5641 5641 5641 5642 5642 5643 5642 5642
5658 5657 5655 5653 5651 5651 5650 5648 5648 5646 5644 5641 5639 5639 5638 5636 5636 5636 5635 5634 5633 5632 5633 5634 5635 5636 5637 5638 5637 5635 5634 5632 5632 5633 5634 5634 5635 5636 5637 5638 5638 5638 5638
5651 5650 5648 5646 5645 5645 5644 5643 5642 5640 5637 5635 5634 5632 5631 5630 5629 5629 5628 5628 5627 5626 5625 5627 5628 5628 5629 5628 5628 5628 5629 5628 5627 5627 5628 5629 5630 5631 5632 5634 5635 5635 5634
5644 5643 5642 5640 5640 5640 5638 5637 5636 5634 5632 5630 5629 5627 5626 5626 5625 5623 5622 5622 5621 5620 5619 5619 5620 5622 5621 5621 5621 5621 5622 5621 5621 5620 5622 5624 5625 5626 5628 5629 5630 5630 5630